| time (UTC) | temp C | wind direction | speed KPH | gust KPH | rain 1hr cm | rain 24hr cm | rain mn cm | humidity % | barometer mb |
| 20260506021113 | 16 | 25 | 3.2 | 3.2 | 0.00 | 0.08 | 0.08 | 99 | 3399.2 |
| 20260506020610 | 16 | 79 | 0.0 | 0.0 | 0.00 | 0.08 | 0.08 | 99 | 3399.1 |
| 20260506020108 | 16 | 97 | 0.0 | 0.0 | 0.00 | 0.08 | 0.08 | 98 | 3398.8 |
| 20260506015605 | 16 | 73 | 0.0 | 0.0 | 0.00 | 0.08 | 0.08 | 98 | 3398.8 |
| 20260506015102 | 16 | 87 | 0.0 | 0.0 | 0.00 | 0.08 | 0.08 | 99 | 3399.0 |
| 20260506014600 | 16 | 87 | 0.0 | 0.0 | 0.00 | 0.08 | 0.08 | 99 | 3398.9 |
| 20260506014055 | 16 | 85 | 0.0 | 0.0 | 0.00 | 0.08 | 0.08 | 99 | 3399.1 |
| 20260506013553 | 16 | 124 | 0.0 | 3.2 | 0.00 | 0.08 | 0.08 | 99 | 3399.3 |
| 20260506013050 | 16 | 125 | 0.0 | 0.0 | 0.00 | 0.08 | 0.08 | 99 | 3399.3 |
| 20260506012546 | 16 | 108 | 0.0 | 3.2 | 0.00 | 0.08 | 0.08 | 99 | 3399.3 |
| 20260506012043 | 16 | 129 | 0.0 | 0.0 | 0.00 | 0.08 | 0.08 | 99 | 3399.5 |
| 20260506011541 | 16 | 113 | 0.0 | 0.0 | 0.00 | 0.08 | 0.08 | 99 | 3399.3 |
| 20260506011037 | 16 | 113 | 0.0 | 0.0 | 0.00 | 0.08 | 0.08 | 99 | 3399.5 |
| 20260506010536 | 16 | 107 | 0.0 | 0.0 | 0.00 | 0.08 | 0.08 | 99 | 3399.2 |
| 20260506010032 | 16 | 107 | 0.0 | 0.0 | 0.00 | 0.08 | 0.08 | 98 | 3399.2 |
| 20260506005529 | 16 | 116 | 0.0 | 0.0 | 0.00 | 0.08 | 0.08 | 98 | 3399.1 |
| 20260506005025 | 16 | 119 | 0.0 | 0.0 | 0.00 | 0.08 | 0.08 | 98 | 3399.0 |
| 20260506004523 | 16 | 123 | 3.2 | 4.8 | 0.00 | 0.08 | 0.08 | 98 | 3399.4 |
| 20260506004019 | 16 | 102 | 0.0 | 0.0 | 0.00 | 0.08 | 0.08 | 98 | 3399.4 |
| 20260506003516 | 16 | 111 | 0.0 | 0.0 | 0.18 | 0.08 | 0.08 | 97 | 3399.5 |
| 20260506003012 | 16 | 109 | 0.0 | 0.0 | 0.18 | 0.08 | 0.08 | 97 | 3399.6 |
| 20260506002508 | 16 | 91 | 0.0 | 0.0 | 0.00 | 0.05 | 0.05 | 96 | 3399.2 |
| 20260506002004 | 16 | 122 | 0.0 | 0.0 | 0.00 | 0.05 | 0.05 | 96 | 3400.2 |
| 20260506001500 | 16 | 139 | 0.0 | 3.2 | 0.00 | 0.05 | 0.05 | 96 | 3400.0 |
| 20260506000958 | 16 | 112 | 1.6 | 3.2 | 0.00 | 0.05 | 0.05 | 95 | 3399.8 |
| 20260506000455 | 16 | 126 | 1.6 | 3.2 | 0.00 | 0.05 | 0.05 | 95 | 3400.0 |
| 20260505235952 | 17 | 92 | 1.6 | 3.2 | 0.00 | 0.05 | 0.05 | 94 | 3399.9 |
| 20260505235451 | 17 | 96 | 0.0 | 0.0 | 0.00 | 0.05 | 0.05 | 94 | 3399.8 |
| 20260505234947 | 17 | 133 | 4.8 | 8.0 | 0.00 | 0.05 | 0.05 | 93 | 3400.1 |
| 20260505234444 | 17 | 182 | 4.8 | 4.8 | 0.00 | 0.05 | 0.05 | 91 | 3400.0 |
| 20260505233941 | 18 | 82 | 0.0 | 0.0 | 0.00 | 0.05 | 0.05 | 87 | 3400.2 |
| 20260505233439 | 19 | 163 | 9.7 | 11.3 | 0.00 | 0.05 | 0.05 | 83 | 3399.8 |
| 20260505232936 | 20 | 143 | 4.8 | 4.8 | 0.00 | 0.05 | 0.05 | 80 | 3399.9 |
| 20260505232434 | 20 | 204 | 4.8 | 8.0 | 0.00 | 0.05 | 0.05 | 78 | 3399.7 |
| 20260505231931 | 20 | 124 | 3.2 | 4.8 | 0.00 | 0.05 | 0.05 | 76 | 3399.9 |
| 20260505231428 | 20 | 161 | 3.2 | 4.8 | 0.00 | 0.05 | 0.05 | 76 | 3399.6 |
| 20260505230926 | 20 | 155 | 1.6 | 3.2 | 0.00 | 0.05 | 0.05 | 75 | 3399.6 |
| 20260505230423 | 21 | 183 | 4.8 | 4.8 | 0.00 | 0.05 | 0.05 | 74 | 3399.8 |
| 20260505225919 | 21 | 148 | 3.2 | 4.8 | 0.00 | 0.05 | 0.05 | 74 | 3399.5 |
| 20260505225417 | 21 | 125 | 1.6 | 3.2 | 0.00 | 0.05 | 0.05 | 74 | 3399.5 |
| 20260505224912 | 21 | 86 | 1.6 | 3.2 | 0.00 | 0.05 | 0.05 | 74 | 3399.6 |
| 20260505224410 | 21 | 124 | 0.0 | 3.2 | 0.00 | 0.05 | 0.05 | 76 | 3399.7 |
| 20260505223906 | 21 | 146 | 3.2 | 4.8 | 0.00 | 0.05 | 0.05 | 76 | 3399.6 |
| 20260505223403 | 21 | 237 | 3.2 | 4.8 | 0.00 | 0.05 | 0.05 | 79 | 3399.7 |
| 20260505222859 | 21 | 139 | 4.8 | 4.8 | 0.00 | 0.05 | 0.05 | 78 | 3399.6 |
| 20260505222356 | 21 | 128 | 0.0 | 3.2 | 0.00 | 0.05 | 0.05 | 78 | 3399.3 |
| 20260505221852 | 21 | 169 | 0.0 | 0.0 | 0.00 | 0.05 | 0.05 | 78 | 3399.4 |
| 20260505221349 | 21 | 120 | 1.6 | 3.2 | 0.00 | 0.05 | 0.05 | 78 | 3399.6 |
| 20260505220846 | 21 | 91 | 1.6 | 3.2 | 0.00 | 0.05 | 0.05 | 78 | 3399.5 |
| 20260505220343 | 21 | 123 | 1.6 | 3.2 | 0.00 | 0.05 | 0.05 | 78 | 3399.6 |
| 20260505215841 | 21 | 169 | 4.8 | 4.8 | 0.00 | 0.05 | 0.05 | 78 | 3399.6 |
| 20260505215339 | 21 | 262 | 8.0 | 8.0 | 0.00 | 0.05 | 0.05 | 79 | 3399.4 |
| 20260505214837 | 21 | 142 | 0.0 | 0.0 | 0.00 | 0.05 | 0.05 | 79 | 3399.5 |
| 20260505214334 | 21 | 81 | 0.0 | 3.2 | 0.00 | 0.05 | 0.05 | 79 | 3399.6 |
| 20260505213831 | 20 | 55 | 1.6 | 3.2 | 0.00 | 0.05 | 0.05 | 80 | 3399.6 |
| 20260505213329 | 21 | 117 | 0.0 | 0.0 | 0.00 | 0.05 | 0.05 | 80 | 3399.7 |
| 20260505212825 | 21 | 103 | 0.0 | 0.0 | 0.00 | 0.05 | 0.05 | 81 | 3399.9 |
| 20260505212322 | 20 | 138 | 1.6 | 3.2 | 0.00 | 0.05 | 0.05 | 81 | 3400.0 |
| 20260505211818 | 20 | 156 | 1.6 | 3.2 | 0.00 | 0.05 | 0.05 | 81 | 3400.0 |
| 20260505211316 | 20 | 124 | 3.2 | 4.8 | 0.00 | 0.05 | 0.05 | 82 | 3400.1 |
| 20260505210812 | 20 | 101 | 0.0 | 0.0 | 0.00 | 0.05 | 0.05 | 82 | 3400.2 |
| 20260505210309 | 20 | 132 | 3.2 | 4.8 | 0.00 | 0.05 | 0.05 | 82 | 3400.0 |
| 20260505205806 | 20 | 70 | 0.0 | 3.2 | 0.00 | 0.05 | 0.05 | 82 | 3399.8 |
| 20260505205305 | 21 | 66 | 1.6 | 4.8 | 0.00 | 0.05 | 0.05 | 80 | 3400.1 |
| 20260505204801 | 21 | 85 | 0.0 | 0.0 | 0.00 | 0.05 | 0.05 | 80 | 3399.9 |
| 20260505204259 | 21 | 156 | 8.0 | 11.3 | 0.00 | 0.05 | 0.05 | 78 | 3400.1 |
| 20260505203755 | 21 | 94 | 0.0 | 3.2 | 0.00 | 0.05 | 0.05 | 78 | 3400.0 |
| 20260505203253 | 21 | 95 | 0.0 | 0.0 | 0.00 | 0.05 | 0.05 | 78 | 3399.9 |
| 20260505202749 | 22 | 68 | 1.6 | 3.2 | 0.00 | 0.05 | 0.05 | 76 | 3399.9 |
| 20260505202244 | 22 | 115 | 1.6 | 3.2 | 0.00 | 0.05 | 0.05 | 76 | 3399.8 |
| 20260505201736 | 21 | 159 | 3.2 | 8.0 | 0.00 | 0.05 | 0.05 | 77 | 3399.8 |
| 20260505201233 | 21 | 177 | 8.0 | 8.0 | 0.00 | 0.05 | 0.05 | 78 | 3399.9 |
| 20260505200731 | 21 | 83 | 1.6 | 3.2 | 0.00 | 0.05 | 0.05 | 78 | 3400.0 |
| 20260505200228 | 21 | 96 | 3.2 | 3.2 | 0.00 | 0.05 | 0.05 | 78 | 3400.4 |
| 20260505195723 | 21 | 192 | 0.0 | 3.2 | 0.00 | 0.05 | 0.05 | 80 | 3400.5 |
| 20260505195221 | 21 | 120 | 4.8 | 4.8 | 0.00 | 0.05 | 0.05 | 79 | 3400.4 |
| 20260505194718 | 22 | 61 | 0.0 | 3.2 | 0.00 | 0.05 | 0.05 | 78 | 3400.7 |
| 20260505194214 | 21 | 136 | 1.6 | 4.8 | 0.00 | 0.05 | 0.05 | 81 | 3400.7 |
| 20260505193710 | 21 | 100 | 0.0 | 3.2 | 0.00 | 0.05 | 0.05 | 79 | 3400.9 |
| 20260505193208 | 21 | 140 | 0.0 | 0.0 | 0.00 | 0.05 | 0.05 | 79 | 3400.9 |
| 20260505192707 | 21 | 136 | 3.2 | 4.8 | 0.00 | 0.05 | 0.05 | 80 | 3400.9 |
| 20260505192203 | 21 | 100 | 0.0 | 3.2 | 0.00 | 0.05 | 0.05 | 81 | 3400.9 |
| 20260505191702 | 20 | 142 | 3.2 | 4.8 | 0.00 | 0.05 | 0.05 | 82 | 3401.0 |
| 20260505191200 | 20 | 88 | 3.2 | 4.8 | 0.00 | 0.05 | 0.05 | 82 | 3401.2 |
| 20260505190656 | 20 | 138 | 4.8 | 4.8 | 0.00 | 0.05 | 0.05 | 83 | 3401.0 |
| 20260505190155 | 20 | 63 | 1.6 | 4.8 | 0.00 | 0.05 | 0.05 | 84 | 3401.3 |
| 20260505185653 | 19 | 173 | 0.0 | 0.0 | 0.00 | 0.05 | 0.05 | 87 | 3401.5 |
| 20260505185149 | 19 | 63 | 3.2 | 3.2 | 0.00 | 0.05 | 0.05 | 89 | 3401.5 |
| 20260505184645 | 18 | 139 | 0.0 | 0.0 | 0.00 | 0.05 | 0.05 | 91 | 3401.6 |
| 20260505184142 | 18 | 137 | 0.0 | 0.0 | 0.00 | 0.05 | 0.05 | 93 | 3401.7 |
| 20260505183639 | 17 | 131 | 0.0 | 0.0 | 0.00 | 0.05 | 0.05 | 94 | 3401.7 |
| 20260505183137 | 17 | 85 | 0.0 | 0.0 | 0.00 | 0.05 | 0.05 | 94 | 3401.6 |
| 20260505182633 | 17 | 96 | 0.0 | 0.0 | 0.00 | 0.05 | 0.05 | 94 | 3401.9 |
| 20260505182130 | 17 | 98 | 0.0 | 0.0 | 0.00 | 0.05 | 0.05 | 94 | 3401.9 |
| 20260505181626 | 17 | 161 | 1.6 | 3.2 | 0.00 | 0.05 | 0.05 | 93 | 3402.0 |
| 20260505181124 | 17 | 119 | 0.0 | 0.0 | 0.13 | 0.05 | 0.05 | 93 | 3401.9 |
| 20260505180620 | 17 | 119 | 0.0 | 0.0 | 0.13 | 0.05 | 0.05 | 93 | 3402.2 |
| 20260505180118 | 17 | 120 | 0.0 | 0.0 | 0.00 | 0.03 | 0.03 | 93 | 3402.3 |
| 20260505175613 | 17 | 102 | 1.6 | 3.2 | 0.00 | 0.03 | 0.03 | 93 | 3402.3 |
| 20260505175110 | 17 | 91 | 1.6 | 3.2 | 0.00 | 0.03 | 0.03 | 92 | 3402.6 |
| 20260505174606 | 17 | 94 | 0.0 | 0.0 | 0.00 | 0.03 | 0.03 | 92 | 3402.6 |
| 20260505174102 | 17 | 83 | 0.0 | 0.0 | 0.00 | 0.03 | 0.03 | 92 | 3402.4 |
| 20260505173559 | 17 | 132 | 3.2 | 3.2 | 0.00 | 0.03 | 0.03 | 92 | 3402.3 |
| 20260505173056 | 17 | 146 | 1.6 | 3.2 | 0.00 | 0.03 | 0.03 | 91 | 3402.3 |
| 20260505172554 | 17 | 139 | 0.0 | 3.2 | 0.00 | 0.03 | 0.03 | 91 | 3402.4 |
| 20260505172051 | 17 | 93 | 0.0 | 0.0 | 0.00 | 0.03 | 0.03 | 91 | 3402.1 |
| 20260505171545 | 17 | 134 | 1.6 | 3.2 | 0.00 | 0.03 | 0.03 | 91 | 3402.1 |
| 20260505171042 | 17 | 84 | 0.0 | 0.0 | 0.00 | 0.03 | 0.03 | 91 | 3402.2 |
| 20260505170539 | 17 | 122 | 1.6 | 3.2 | 0.00 | 0.03 | 0.03 | 91 | 3402.4 |
| 20260505170036 | 17 | 115 | 0.0 | 0.0 | 0.00 | 0.03 | 0.03 | 91 | 3402.2 |
| 20260505165531 | 17 | 93 | 0.0 | 0.0 | 0.00 | 0.03 | 0.03 | 92 | 3402.2 |
| 20260505165026 | 17 | 93 | 0.0 | 0.0 | 0.00 | 0.03 | 0.03 | 91 | 3402.1 |
| 20260505164523 | 17 | 113 | 0.0 | 0.0 | 0.00 | 0.03 | 0.03 | 91 | 3402.0 |
| 20260505164021 | 17 | 134 | 0.0 | 0.0 | 0.00 | 0.03 | 0.03 | 90 | 3402.3 |
| 20260505163519 | 17 | 103 | 0.0 | 3.2 | 0.18 | 0.03 | 0.03 | 89 | 3402.8 |
| 20260505163016 | 18 | 123 | 0.0 | 0.0 | 0.18 | 0.03 | 0.03 | 89 | 3402.4 |
| 20260505162509 | 18 | 143 | 1.6 | 3.2 | 0.18 | 0.03 | 0.03 | 87 | 3402.7 |
| 20260505162006 | 18 | 130 | 0.0 | 0.0 | 0.00 | 0.00 | 0.00 | 85 | 3402.9 |
| 20260505161502 | 18 | 130 | 1.6 | 3.2 | 0.00 | 0.00 | 0.00 | 82 | 3402.7 |
| 20260505161000 | 18 | 200 | 12.9 | 12.9 | 0.00 | 0.00 | 0.00 | 82 | 3403.1 |
| 20260505160458 | 18 | 124 | 0.0 | 0.0 | 0.00 | 0.00 | 0.00 | 81 | 3403.1 |
| 20260505152934 | 18 | 93 | 1.6 | 3.2 | 0.00 | 0.00 | 0.00 | 79 | 3403.1 |
| 20260505152431 | 18 | 177 | 3.2 | 4.8 | 0.00 | 0.00 | 0.00 | 79 | 3403.2 |
| 20260505151926 | 18 | 131 | 0.0 | 3.2 | 0.00 | 0.00 | 0.00 | 79 | 3403.0 |
| 20260505151422 | 18 | 126 | 0.0 | 0.0 | 0.00 | 0.00 | 0.00 | 79 | 3402.9 |
| 20260505150920 | 18 | 182 | 4.8 | 4.8 | 0.00 | 0.00 | 0.00 | 78 | 3403.2 |
| 20260505150416 | 18 | 92 | 0.0 | 0.0 | 0.00 | 0.00 | 0.00 | 79 | 3403.1 |
| 20260505140340 | 17 | 125 | 0.0 | 3.2 | 0.00 | 0.00 | 0.00 | 78 | 3402.3 |
| 20260505130303 | 17 | 120 | 0.0 | 0.0 | 0.00 | 0.00 | 0.00 | 79 | 3402.2 |
| 20260505124754 | 16 | 86 | 0.0 | 0.0 | 0.00 | 0.00 | 0.00 | 80 | 3402.1 |
| 20260505124251 | 16 | 85 | 0.0 | 3.2 | 0.00 | 0.00 | 0.00 | 80 | 3401.9 |
| 20260505123746 | 16 | 85 | 0.0 | 0.0 | 0.00 | 0.00 | 0.00 | 81 | 3402.0 |
| 20260505123243 | 16 | 86 | 0.0 | 0.0 | 0.00 | 0.00 | 0.00 | 80 | 3402.1 |
| 20260505122740 | 16 | 86 | 0.0 | 0.0 | 0.00 | 0.00 | 0.00 | 80 | 3402.2 |
| 20260505122237 | 16 | 86 | 0.0 | 0.0 | 0.00 | 0.00 | 0.00 | 80 | 3402.6 |
| 20260505121734 | 16 | 85 | 0.0 | 0.0 | 0.00 | 0.00 | 0.00 | 81 | 3402.2 |
| 20260505121230 | 16 | 80 | 0.0 | 3.2 | 0.00 | 0.00 | 0.00 | 81 | 3402.3 |
| 20260505120727 | 16 | 80 | 0.0 | 0.0 | 0.00 | 0.00 | 0.00 | 81 | 3402.2 |
| 20260505120223 | 16 | 80 | 0.0 | 0.0 | 0.00 | 0.00 | 0.00 | 81 | 3402.3 |
| 20260505115721 | 15 | 94 | 0.0 | 0.0 | 0.00 | 0.00 | 0.00 | 82 | 3402.1 |
| 20260505115219 | 15 | 100 | 0.0 | 3.2 | 0.00 | 0.00 | 0.00 | 82 | 3402.0 |
| 20260505114717 | 15 | 106 | 0.0 | 0.0 | 0.00 | 0.00 | 0.00 | 82 | 3402.0 |
| 20260505114212 | 15 | 106 | 0.0 | 0.0 | 0.00 | 0.00 | 0.00 | 82 | 3401.5 |
| 20260505113709 | 15 | 106 | 0.0 | 0.0 | 0.00 | 0.00 | 0.00 | 82 | 3401.6 |
| 20260505113206 | 15 | 60 | 0.0 | 0.0 | 0.00 | 0.00 | 0.00 | 82 | 3401.6 |
| 20260505112702 | 15 | 60 | 0.0 | 0.0 | 0.00 | 0.00 | 0.00 | 82 | 3401.7 |
| 20260505112200 | 15 | 60 | 0.0 | 3.2 | 0.00 | 0.00 | 0.00 | 82 | 3401.7 |
| 20260505111659 | 15 | 60 | 0.0 | 0.0 | 0.00 | 0.00 | 0.00 | 83 | 3401.8 |
| 20260505111155 | 15 | 49 | 0.0 | 0.0 | 0.00 | 0.00 | 0.00 | 83 | 3401.6 |
| 20260505110652 | 15 | 49 | 0.0 | 0.0 | 0.00 | 0.00 | 0.00 | 83 | 3401.4 |
| 20260505110149 | 15 | 49 | 0.0 | 0.0 | 0.00 | 0.00 | 0.00 | 83 | 3401.6 |
| 20260505102125 | 14 | 58 | 0.0 | 0.0 | 0.00 | 0.00 | 0.00 | 84 | 3401.8 |
| 20260505101624 | 14 | 58 | 0.0 | 0.0 | 0.00 | 0.00 | 0.00 | 84 | 3401.6 |
| 20260505101119 | 15 | 58 | 0.0 | 0.0 | 0.00 | 0.00 | 0.00 | 84 | 3401.7 |
| 20260505100616 | 15 | 58 | 0.0 | 0.0 | 0.00 | 0.00 | 0.00 | 83 | 3401.9 |
| 20260505100113 | 15 | 58 | 0.0 | 0.0 | 0.00 | 0.00 | 0.00 | 84 | 3401.8 |
| 20260505095609 | 14 | 58 | 0.0 | 0.0 | 0.00 | 0.00 | 0.00 | 84 | 3401.7 |
| 20260505095106 | 15 | 58 | 0.0 | 0.0 | 0.00 | 0.00 | 0.00 | 84 | 3401.7 |
| 20260505094602 | 14 | 58 | 0.0 | 0.0 | 0.00 | 0.00 | 0.00 | 84 | 3401.9 |
| 20260505094058 | 14 | 58 | 0.0 | 0.0 | 0.00 | 0.00 | 0.00 | 84 | 3401.9 |
| 20260505093554 | 14 | 51 | 0.0 | 0.0 | 0.00 | 0.00 | 0.00 | 84 | 3401.9 |
| 20260505093052 | 15 | 51 | 0.0 | 0.0 | 0.00 | 0.00 | 0.00 | 84 | 3401.7 |
| 20260505092549 | 15 | 51 | 0.0 | 0.0 | 0.00 | 0.00 | 0.00 | 83 | 3401.8 |
| 20260505092048 | 15 | 51 | 0.0 | 0.0 | 0.00 | 0.00 | 0.00 | 83 | 3401.8 |
| 20260505091544 | 15 | 51 | 0.0 | 0.0 | 0.00 | 0.00 | 0.00 | 83 | 3401.6 |
| 20260505091043 | 15 | 51 | 0.0 | 0.0 | 0.00 | 0.00 | 0.00 | 83 | 3401.7 |
| 20260505090540 | 15 | 51 | 0.0 | 0.0 | 0.00 | 0.00 | 0.00 | 82 | 3401.9 |
| 20260505090038 | 15 | 51 | 0.0 | 0.0 | 0.00 | 0.00 | 0.00 | 82 | 3401.7 |
| 20260505085536 | 15 | 51 | 0.0 | 0.0 | 0.00 | 0.00 | 0.00 | 82 | 3401.8 |
| 20260505085034 | 15 | 51 | 0.0 | 0.0 | 0.00 | 0.00 | 0.00 | 81 | 3402.0 |
| 20260505084531 | 15 | 51 | 0.0 | 0.0 | 0.00 | 0.00 | 0.00 | 81 | 3401.8 |
| 20260505084029 | 15 | 51 | 0.0 | 0.0 | 0.00 | 0.00 | 0.00 | 81 | 3401.7 |
| 20260505083526 | 15 | 51 | 0.0 | 0.0 | 0.00 | 0.00 | 0.00 | 80 | 3401.7 |
| 20260505083023 | 15 | 51 | 0.0 | 0.0 | 0.00 | 0.00 | 0.00 | 79 | 3401.5 |
| 20260505082518 | 15 | 51 | 0.0 | 0.0 | 0.00 | 0.00 | 0.00 | 78 | 3401.7 |
| 20260505082015 | 16 | 51 | 0.0 | 0.0 | 0.00 | 0.00 | 0.00 | 78 | 3401.5 |
| 20260505081512 | 16 | 51 | 0.0 | 0.0 | 0.00 | 0.00 | 0.00 | 77 | 3401.5 |
| 20260505081009 | 16 | 49 | 0.0 | 0.0 | 0.00 | 0.00 | 0.00 | 77 | 3401.7 |
| 20260505080505 | 16 | 49 | 0.0 | 3.2 | 0.00 | 0.00 | 0.00 | 77 | 3401.5 |
| 20260505080001 | 16 | 67 | 0.0 | 0.0 | 0.00 | 0.00 | 0.00 | 77 | 3401.6 |
| 20260505075458 | 16 | 125 | 0.0 | 0.0 | 0.00 | 0.00 | 0.00 | 76 | 3401.4 |
| 20260505074955 | 16 | 126 | 0.0 | 0.0 | 0.00 | 0.00 | 0.00 | 76 | 3401.5 |
| 20260505074452 | 16 | 66 | 0.0 | 0.0 | 0.00 | 0.00 | 0.00 | 76 | 3401.7 |
| 20260505073949 | 16 | 65 | 0.0 | 0.0 | 0.00 | 0.00 | 0.00 | 76 | 3401.4 |
| 20260505073447 | 16 | 120 | 0.0 | 0.0 | 0.00 | 0.00 | 0.00 | 75 | 3401.4 |
| 20260505072944 | 16 | 107 | 0.0 | 0.0 | 0.00 | 0.00 | 0.00 | 75 | 3401.5 |
| 20260505072440 | 16 | 108 | 0.0 | 0.0 | 0.00 | 0.00 | 0.00 | 75 | 3401.3 |
| 20260505071936 | 16 | 107 | 0.0 | 0.0 | 0.00 | 0.00 | 0.00 | 74 | 3401.3 |
| 20260505071432 | 17 | 107 | 0.0 | 0.0 | 0.00 | 0.00 | 0.00 | 74 | 3401.3 |
| 20260505070931 | 17 | 106 | 0.0 | 0.0 | 0.00 | 0.00 | 0.00 | 73 | 3401.4 |
| 20260505070427 | 17 | 70 | 0.0 | 0.0 | 0.00 | 0.00 | 0.00 | 73 | 3401.5 |
| 20260505065922 | 17 | 65 | 0.0 | 0.0 | 0.00 | 0.00 | 0.00 | 73 | 3401.6 |
| 20260505065419 | 17 | 91 | 0.0 | 0.0 | 0.00 | 0.00 | 0.00 | 74 | 3401.3 |
| 20260505064916 | 17 | 100 | 0.0 | 0.0 | 0.00 | 0.00 | 0.00 | 73 | 3401.2 |
| 20260505064413 | 17 | 129 | 0.0 | 0.0 | 0.00 | 0.00 | 0.00 | 73 | 3401.3 |
| 20260505063912 | 17 | 111 | 0.0 | 0.0 | 0.00 | 0.00 | 0.00 | 72 | 3401.3 |
| 20260505063407 | 17 | 103 | 0.0 | 0.0 | 0.00 | 0.00 | 0.00 | 72 | 3401.0 |
| 20260505062904 | 17 | 68 | 0.0 | 0.0 | 0.00 | 0.00 | 0.00 | 72 | 3401.3 |
| 20260505062401 | 17 | 83 | 0.0 | 0.0 | 0.00 | 0.00 | 0.00 | 72 | 3401.1 |
| 20260505061858 | 17 | 123 | 1.6 | 3.2 | 0.00 | 0.00 | 0.00 | 72 | 3401.2 |
| 20260505061356 | 17 | 117 | 0.0 | 0.0 | 0.00 | 0.00 | 0.00 | 73 | 3401.4 |
| 20260505060854 | 17 | 111 | 0.0 | 0.0 | 0.00 | 0.00 | 0.00 | 72 | 3401.2 |
| 20260505060350 | 17 | 143 | 0.0 | 0.0 | 0.00 | 0.00 | 0.00 | 72 | 3401.4 |
| 20260505055846 | 17 | 141 | 0.0 | 3.2 | 0.00 | 0.00 | 0.00 | 71 | 3401.4 |
| 20260505055342 | 17 | 148 | 0.0 | 3.2 | 0.00 | 0.00 | 0.00 | 71 | 3401.4 |
| 20260505054840 | 17 | 146 | 0.0 | 0.0 | 0.00 | 0.00 | 0.00 | 71 | 3401.4 |
| 20260505054337 | 17 | 147 | 0.0 | 0.0 | 0.00 | 0.00 | 0.00 | 71 | 3401.7 |
| 20260505053835 | 17 | 146 | 0.0 | 0.0 | 0.00 | 0.00 | 0.00 | 71 | 3401.6 |
| 20260505053332 | 17 | 160 | 1.6 | 3.2 | 0.00 | 0.00 | 0.00 | 72 | 3401.6 |
| 20260505052828 | 17 | 163 | 0.0 | 0.0 | 0.00 | 0.00 | 0.00 | 71 | 3401.5 |
| 20260505052325 | 17 | 164 | 0.0 | 0.0 | 0.00 | 0.00 | 0.00 | 72 | 3401.5 |
| 20260505051823 | 17 | 164 | 1.6 | 4.8 | 0.00 | 0.00 | 0.00 | 70 | 3401.2 |
| 20260505051320 | 17 | 164 | 0.0 | 0.0 | 0.00 | 0.00 | 0.00 | 70 | 3401.5 |
| 20260505050818 | 17 | 163 | 0.0 | 3.2 | 0.00 | 0.00 | 0.00 | 70 | 3401.3 |
| 20260505050317 | 17 | 160 | 0.0 | 0.0 | 0.00 | 0.00 | 0.00 | 72 | 3401.5 |
| 20260505041746 | 18 | 159 | 0.0 | 0.0 | 0.00 | 0.00 | 0.00 | 70 | 3401.5 |
| 20260505041243 | 18 | 159 | 0.0 | 0.0 | 0.00 | 0.00 | 0.00 | 69 | 3401.5 |
| 20260505040741 | 18 | 159 | 0.0 | 0.0 | 0.00 | 0.00 | 0.00 | 68 | 3401.5 |
| 20260505040238 | 18 | 159 | 0.0 | 0.0 | 0.00 | 0.00 | 0.00 | 68 | 3401.2 |
| 20260505035735 | 18 | 159 | 0.0 | 0.0 | 0.00 | 0.00 | 0.00 | 68 | 3401.6 |
| 20260505035230 | 18 | 159 | 0.0 | 0.0 | 0.00 | 0.00 | 0.00 | 67 | 3401.4 |
| 20260505034728 | 18 | 159 | 0.0 | 0.0 | 0.00 | 0.00 | 0.00 | 66 | 3401.4 |
| 20260505034224 | 18 | 159 | 0.0 | 0.0 | 0.00 | 0.00 | 0.00 | 66 | 3401.5 |
| 20260505033721 | 18 | 159 | 0.0 | 0.0 | 0.00 | 0.00 | 0.00 | 66 | 3401.5 |
| 20260505033219 | 19 | 160 | 0.0 | 0.0 | 0.00 | 0.00 | 0.00 | 65 | 3401.1 |
| 20260505032717 | 19 | 119 | 1.6 | 3.2 | 0.00 | 0.00 | 0.00 | 65 | 3401.4 |
| 20260505032212 | 19 | 90 | 0.0 | 0.0 | 0.00 | 0.00 | 0.00 | 65 | 3401.4 |
| 20260505031710 | 19 | 89 | 0.0 | 0.0 | 0.00 | 0.00 | 0.00 | 64 | 3401.2 |
| 20260505031206 | 19 | 84 | 0.0 | 0.0 | 0.00 | 0.00 | 0.00 | 64 | 3401.4 |
| 20260505030703 | 20 | 84 | 0.0 | 0.0 | 0.00 | 0.00 | 0.00 | 64 | 3401.3 |
| 20260505030159 | 19 | 132 | 0.0 | 0.0 | 0.00 | 0.00 | 0.00 | 64 | 3401.2 |
| 20260505025655 | 20 | 134 | 0.0 | 0.0 | 0.00 | 0.00 | 0.00 | 64 | 3401.2 |
| 20260505025154 | 20 | 131 | 0.0 | 0.0 | 0.00 | 0.00 | 0.00 | 63 | 3400.9 |
| 20260505024651 | 20 | 116 | 0.0 | 0.0 | 0.00 | 0.00 | 0.00 | 63 | 3401.1 |
| 20260505024148 | 20 | 116 | 3.2 | 3.2 | 0.00 | 0.00 | 0.00 | 62 | 3400.8 |
| 20260505023646 | 20 | 131 | 4.8 | 4.8 | 0.00 | 0.00 | 0.00 | 62 | 3400.8 |
| 20260505023143 | 20 | 101 | 0.0 | 0.0 | 0.00 | 0.00 | 0.00 | 63 | 3400.8 |
| 20260505022640 | 20 | 134 | 0.0 | 0.0 | 0.00 | 0.00 | 0.00 | 63 | 3400.7 |
| 20260505022137 | 20 | 135 | 0.0 | 0.0 | 0.00 | 0.00 | 0.00 | 63 | 3400.4 |
| 20260505021634 | 20 | 279 | 0.0 | 0.0 | 0.00 | 0.00 | 0.00 | 63 | 3400.5 |